Weather History for Akron Canton, OH

Change the Weather History Date:

Saturday, April 28, 2012

  Actual Average Record
Temperature  
Mean Temperature 4 °C 12 °C  
Max Temperature 7 °C 18 °C 31 °C (1986)
Min Temperature 2 °C 6 °C -3 °C (1947)
Degree Days  
Heating Degree Days 25 12  
Month to date heating degree days 453 457  
Since 1 July heating degree days 4736 5852  
Cooling Degree Days 0 0  
Month to date cooling degree days 3 0  
Year to date cooling degree days 25 0  
Moisture  
Dew Point -2 °C    
Average Humidity 59    
Maximum Humidity 79    
Minimum Humidity 39    
Precipitation  
Precipitation 2.54 mm 2.79 mm 3.53 mm (1958)
Month to date precipitation 1.38 3.32  
Year to date precipitation 10.14 11.22  
Snow  
Snow 0.00 cm 0.00 cm - ()
Month to date snowfall 0.1 2.7  
Since 1 July snowfall 31.0 47.4  
Snow Depth 0.00 cm    
Sea Level Pressure  
Sea Level Pressure 1023 hPa    
Wind  
Wind Speed 11 km/h (East)    
Max Wind Speed 26 km/h    
Max Gust Speed 32 km/h    
Visibility 15 kilometers    
Events Rain    
T = Trace of Precipitation, MM = Missing Value Source: NWS Daily Summary

Daily Weather History Graph

Daily Weather History Graph

Search for Another Location

Airport:

Trip Planner

Search our weather history database for the weather conditions in past years. The results will help you decide how hot, cold, wet, or windy it might be!

Date:

Astronomy

Apr. 28, 2012 Rise Set
Actual Time 6:27 AM EDT 8:19 PM EDT
Civil Twilight 5:57 AM EDT 8:49 PM EDT
Nautical Twilight 5:21 AM EDT 9:25 PM EDT
Astronomical Twilight 4:43 AM EDT 10:04 PM EDT
Moon 12:05 PM EDT (4/28) 1:43 AM EDT (4/28)
Length of Visible Light 14h 51m
Length of Day
13h 52m
Waxing Crescent, 42% of the Moon is Illuminated
Apr 28
Waxing Crescent
Apr 29
First Quarter
May 5
Full
May 12
Last Quarter
May 20
New

Hourly Weather History & Observations

Time (EDT) Temp. Windchill Dew Point Humidity Pressure Visibility Wind Dir Wind Speed Gust Speed Precip Events Conditions
12:51 AM 3.3 °C 0.8 °C -5.0 °C 55% 1023.9 hPa 16.1 km ESE 9.3 km/h / 2.6 m/s - N/A   Mostly Cloudy
1:51 AM 2.2 °C 0.0 °C -5.0 °C 59% 1023.6 hPa 16.1 km ESE 7.4 km/h / 2.1 m/s - N/A   Overcast
2:51 AM 2.2 °C -0.9 °C -5.0 °C 59% 1023.1 hPa 16.1 km East 11.1 km/h / 3.1 m/s - N/A   Mostly Cloudy
3:51 AM 2.8 °C 1.4 °C -4.4 °C 59% 1024.3 hPa 16.1 km SSE 5.6 km/h / 1.5 m/s - N/A   Mostly Cloudy
4:51 AM 2.8 °C - -3.3 °C 65% 1025.1 hPa 16.1 km Calm Calm - N/A   Overcast
5:51 AM 3.3 °C 0.8 °C -5.0 °C 55% 1024.2 hPa 16.1 km ESE 9.3 km/h / 2.6 m/s - N/A   Overcast
6:51 AM 3.3 °C 0.8 °C -5.6 °C 53% 1024.9 hPa 16.1 km ENE 9.3 km/h / 2.6 m/s - N/A   Overcast
7:51 AM 3.9 °C 1.1 °C -6.7 °C 46% 1024.7 hPa 16.1 km East 11.1 km/h / 3.1 m/s - N/A   Overcast
8:51 AM 4.4 °C 1.7 °C -6.7 °C 45% 1024.6 hPa 16.1 km SE 11.1 km/h / 3.1 m/s - N/A   Overcast
9:51 AM 5.6 °C 2.3 °C -7.2 °C 40% 1024.2 hPa 16.1 km SE 16.7 km/h / 4.6 m/s - N/A   Overcast
10:51 AM 6.7 °C 3.9 °C -6.1 °C 40% 1023.4 hPa 16.1 km East 14.8 km/h / 4.1 m/s - N/A   Overcast
11:51 AM 7.2 °C 4.5 °C -6.1 °C 39% 1023.1 hPa 16.1 km SE 14.8 km/h / 4.1 m/s - N/A   Overcast
12:51 PM 6.7 °C 4.2 °C -5.6 °C 42% 1023.5 hPa 16.1 km East 13.0 km/h / 3.6 m/s - N/A   Overcast
1:51 PM 3.9 °C 0.4 °C 0.6 °C 79% 1024.1 hPa 6.4 km NE 14.8 km/h / 4.1 m/s - 2.0 mm Rain Light Rain
2:51 PM 3.9 °C 0.4 °C 0.6 °C 79% 1023.5 hPa 14.5 km East 14.8 km/h / 4.1 m/s - 0.5 mm Rain Light Rain
3:51 PM 5.6 °C 1.6 °C 2.2 °C 79% 1021.8 hPa 11.3 km NE 22.2 km/h / 6.2 m/s - 0.0 mm Rain Light Rain
4:51 PM 5.6 °C 2.5 °C 2.8 °C 82% 1021.2 hPa 12.9 km NE 14.8 km/h / 4.1 m/s - 0.0 mm   Overcast
5:51 PM 5.6 °C 2.3 °C 2.2 °C 79% 1020.7 hPa 12.9 km ENE 16.7 km/h / 4.6 m/s - N/A   Overcast
6:51 PM 6.1 °C 3.2 °C 2.2 °C 76% 1021.0 hPa 12.9 km NE 14.8 km/h / 4.1 m/s - N/A   Overcast
7:51 PM 5.6 °C 2.5 °C 0.6 °C 70% 1021.3 hPa 16.1 km NE 14.8 km/h / 4.1 m/s - N/A   Overcast
8:51 PM 5.6 °C 4.0 °C 0.0 °C 67% 1022.0 hPa 16.1 km NE 7.4 km/h / 2.1 m/s - N/A   Overcast
9:51 PM 5.6 °C - 0.0 °C 67% 1022.0 hPa 16.1 km Calm Calm - N/A   Overcast
10:51 PM 5.0 °C 1.5 °C -1.7 °C 62% 1023.0 hPa 16.1 km NNE 16.7 km/h / 4.6 m/s - N/A   Overcast
11:51 PM 5.0 °C - -2.8 °C 57% 1023.0 hPa 16.1 km Calm Calm - N/A   Scattered Clouds